owner,sensor,date,latitude,longitude,vertical_datum,wind_speed,wind_to_direction,wind_speed_of_gust,qcFlag 
TCOON,ioos:station:TCOON:005:1,2014-09-01T00:00:00Z,27.6346,-97.2370,0.0,5.2,124.0,7.7,'11111222,11111222,11111222' 
TCOON,ioos:station:TCOON:005:1,2014-09-01T00:06:00Z,27.6346,-97.2370,0.0,6.0,116.0,7.9,'11111222,11111222,11111222' 
TCOON,ioos:station:TCOON:005:1,2014-09-01T00:12:00Z,27.6346,-97.2370,0.0,5.8,123.0,7.7,'11111222,11111222,11111222' 
TCOON,ioos:station:TCOON:005:1,2014-09-01T00:18:00Z,27.6346,-97.2370,0.0,5.8,112.0,7.0,'11111222,11111222,11111222' 
TCOON,ioos:station:TCOON:005:1,2014-09-01T00:24:00Z,27.6346,-97.2370,0.0,6.1,110.0,7.7,'11111222,11111222,11111222' 
TCOON,ioos:station:TCOON:005:1,2014-09-01T00:30:00Z,27.6346,-97.2370,0.0,5.8,115.0,7.1,'11111222,11111222,11111222' 
TCOON,ioos:station:TCOON:005:1,2014-09-01T00:36:00Z,27.6346,-97.2370,0.0,5.9,114.0,7.6,'11111222,11111222,11111222' 
TCOON,ioos:station:TCOON:005:1,2014-09-01T00:42:00Z,27.6346,-97.2370,0.0,6.1,115.0,7.4,'11111222,11111222,11111222' 
TCOON,ioos:station:TCOON:005:1,2014-09-01T00:48:00Z,27.6346,-97.2370,0.0,6.1,109.0,7.6,'11111222,11111222,11111222' 
TCOON,ioos:station:TCOON:005:1,2014-09-01T00:54:00Z,27.6346,-97.2370,0.0,5.7,108.0,6.6,'11111222,11111222,11111222' 
TCOON,ioos:station:TCOON:005:1,2014-09-01T01:00:00Z,27.6346,-97.2370,0.0,6.4,115.0,8.3,'11111222,11111222,11111222' 
TCOON,ioos:station:TCOON:005:1,2014-09-01T01:06:00Z,27.6346,-97.2370,0.0,7.2,111.0,8.9,'11111222,11111222,11111222' 
TCOON,ioos:station:TCOON:005:1,2014-09-01T01:12:00Z,27.6346,-97.2370,0.0,7.0,114.0,9.2,'11111222,11111222,11111222' 
TCOON,ioos:station:TCOON:005:1,2014-09-01T01:18:00Z,27.6346,-97.2370,0.0,6.6,115.0,8.7,'11111222,11111222,11111222' 
TCOON,ioos:station:TCOON:005:1,2014-09-01T01:24:00Z,27.6346,-97.2370,0.0,6.5,111.0,8.0,'11111222,11111222,11111222' 
TCOON,ioos:station:TCOON:005:1,2014-09-01T01:30:00Z,27.6346,-97.2370,0.0,6.8,114.0,7.7,'11111222,11111222,11111222' 
TCOON,ioos:station:TCOON:005:1,2014-09-01T01:36:00Z,27.6346,-97.2370,0.0,6.1,118.0,7.6,'11111222,11111222,11111222' 
TCOON,ioos:station:TCOON:005:1,2014-09-01T01:42:00Z,27.6346,-97.2370,0.0,5.7,115.0,7.8,'11111222,11111222,11111222' 
TCOON,ioos:station:TCOON:005:1,2014-09-01T01:48:00Z,27.6346,-97.2370,0.0,5.3,122.0,6.6,'11111222,11111222,11111222' 
TCOON,ioos:station:TCOON:005:1,2014-09-01T01:54:00Z,27.6346,-97.2370,0.0,5.9,120.0,8.0,'11111222,11111222,11111222' 
TCOON,ioos:station:TCOON:005:1,2014-09-01T02:00:00Z,27.6346,-97.2370,0.0,6.5,125.0,7.8,'11111222,11111222,11111222' 
TCOON,ioos:station:TCOON:005:1,2014-09-01T02:06:00Z,27.6346,-97.2370,0.0,5.4,127.0,7.6,'11111222,11111222,11111222' 
TCOON,ioos:station:TCOON:005:1,2014-09-01T02:12:00Z,27.6346,-97.2370,0.0,6.0,125.0,6.8,'11111222,11111222,11111222' 
TCOON,ioos:station:TCOON:005:1,2014-09-01T02:18:00Z,27.6346,-97.2370,0.0,6.0,125.0,6.8,'1111122,1111122,1111122' 
TCOON,ioos:station:TCOON:005:1,2014-09-01T02:24:00Z,27.6346,-97.2370,0.0,5.8,127.0,7.6,'11111222,11111222,11111222' 
TCOON,ioos:station:TCOON:005:1,2014-09-01T02:30:00Z,27.6346,-97.2370,0.0,4.1,129.0,6.7,'11111222,11111222,11111222' 
TCOON,ioos:station:TCOON:005:1,2014-09-01T02:36:00Z,27.6346,-97.2370,0.0,5.2,129.0,7.1,'11111222,11111222,11111222' 
TCOON,ioos:station:TCOON:005:1,2014-09-01T02:42:00Z,27.6346,-97.2370,0.0,5.8,132.0,7.0,'11111222,11111222,11111222' 
TCOON,ioos:station:TCOON:005:1,2014-09-01T02:48:00Z,27.6346,-97.2370,0.0,4.3,136.0,7.8,'11111222,11111222,11111222' 
TCOON,ioos:station:TCOON:005:1,2014-09-01T02:54:00Z,27.6346,-97.2370,0.0,5.2,133.0,7.1,'11111222,11111222,11111222' 
TCOON,ioos:station:TCOON:005:1,2014-09-01T03:00:00Z,27.6346,-97.2370,0.0,5.2,134.0,6.4,'11111222,11111222,11111222' 
TCOON,ioos:station:TCOON:005:1,2014-09-01T03:06:00Z,27.6346,-97.2370,0.0,5.1,133.0,7.0,'11111222,11111222,11111222' 
TCOON,ioos:station:TCOON:005:1,2014-09-01T03:12:00Z,27.6346,-97.2370,0.0,5.1,133.0,7.0,'1111122,1111122,1111122' 
TCOON,ioos:station:TCOON:005:1,2014-09-01T03:18:00Z,27.6346,-97.2370,0.0,5.4,130.0,6.7,'11111222,11111222,11111222' 
TCOON,ioos:station:TCOON:005:1,2014-09-01T03:24:00Z,27.6346,-97.2370,0.0,6.2,131.0,7.9,'11111222,11111222,11111222' 
TCOON,ioos:station:TCOON:005:1,2014-09-01T03:30:00Z,27.6346,-97.2370,0.0,5.2,134.0,8.0,'11111222,11111222,11111222' 
TCOON,ioos:station:TCOON:005:1,2014-09-01T03:36:00Z,27.6346,-97.2370,0.0,6.5,134.0,8.2,'11111222,11111222,11111222' 
TCOON,ioos:station:TCOON:005:1,2014-09-01T03:42:00Z,27.6346,-97.2370,0.0,5.4,136.0,7.4,'11111222,11111222,11111222' 
TCOON,ioos:station:TCOON:005:1,2014-09-01T03:48:00Z,27.6346,-97.2370,0.0,6.2,136.0,8.7,'11111222,11111222,11111222' 
TCOON,ioos:station:TCOON:005:1,2014-09-01T03:54:00Z,27.6346,-97.2370,0.0,6.1,134.0,8.2,'11111222,11111222,11111222' 
TCOON,ioos:station:TCOON:005:1,2014-09-01T04:00:00Z,27.6346,-97.2370,0.0,5.6,142.0,7.6,'11111222,11111222,11111222' 
TCOON,ioos:station:TCOON:005:1,2014-09-01T04:06:00Z,27.6346,-97.2370,0.0,5.3,140.0,7.7,'11111222,11111222,11111222' 
TCOON,ioos:station:TCOON:005:1,2014-09-01T04:12:00Z,27.6346,-97.2370,0.0,5.3,140.0,7.7,'1111122,1111122,1111122' 
TCOON,ioos:station:TCOON:005:1,2014-09-01T04:18:00Z,27.6346,-97.2370,0.0,5.1,143.0,8.4,'11111222,11111222,11111222' 
TCOON,ioos:station:TCOON:005:1,2014-09-01T04:24:00Z,27.6346,-97.2370,0.0,5.3,141.0,7.1,'11111222,11111222,11111222' 
TCOON,ioos:station:TCOON:005:1,2014-09-01T04:30:00Z,27.6346,-97.2370,0.0,5.9,143.0,7.9,'11111222,11111222,11111222' 
TCOON,ioos:station:TCOON:005:1,2014-09-01T04:36:00Z,27.6346,-97.2370,0.0,6.0,138.0,7.8,'11111222,11111222,11111222' 
TCOON,ioos:station:TCOON:005:1,2014-09-01T04:42:00Z,27.6346,-97.2370,0.0,7.1,141.0,8.9,'11111222,11111222,11111222' 
TCOON,ioos:station:TCOON:005:1,2014-09-01T04:48:00Z,27.6346,-97.2370,0.0,5.9,142.0,7.8,'11111222,11111222,11111222' 
TCOON,ioos:station:TCOON:005:1,2014-09-01T04:54:00Z,27.6346,-97.2370,0.0,6.0,143.0,7.9,'11111222,11111222,11111222' 
TCOON,ioos:station:TCOON:005:1,2014-09-01T05:00:00Z,27.6346,-97.2370,0.0,5.7,140.0,9.0,'11111222,11111222,11111222' 
TCOON,ioos:station:TCOON:005:1,2014-09-01T05:06:00Z,27.6346,-97.2370,0.0,6.1,140.0,8.9,'11111222,11111222,11111222' 
TCOON,ioos:station:TCOON:005:1,2014-09-01T05:12:00Z,27.6346,-97.2370,0.0,6.1,140.0,8.9,'1111122,1111122,1111122' 
TCOON,ioos:station:TCOON:005:1,2014-09-01T05:18:00Z,27.6346,-97.2370,0.0,5.3,140.0,8.8,'11111222,11111222,11111222' 
TCOON,ioos:station:TCOON:005:1,2014-09-01T05:24:00Z,27.6346,-97.2370,0.0,5.6,142.0,7.8,'11111222,11111222,11111222' 
TCOON,ioos:station:TCOON:005:1,2014-09-01T05:30:00Z,27.6346,-97.2370,0.0,5.0,142.0,7.2,'11111222,11111222,11111222' 
TCOON,ioos:station:TCOON:005:1,2014-09-01T05:36:00Z,27.6346,-97.2370,0.0,5.7,142.0,7.9,'11111222,11111222,11111222' 
TCOON,ioos:station:TCOON:005:1,2014-09-01T05:42:00Z,27.6346,-97.2370,0.0,5.8,147.0,8.0,'11111222,11111222,11111222' 
TCOON,ioos:station:TCOON:005:1,2014-09-01T05:48:00Z,27.6346,-97.2370,0.0,5.8,145.0,7.1,'11111222,11111222,11111222' 
TCOON,ioos:station:TCOON:005:1,2014-09-01T05:54:00Z,27.6346,-97.2370,0.0,4.3,144.0,6.1,'11111222,11111222,11111222' 
TCOON,ioos:station:TCOON:005:1,2014-09-01T06:00:00Z,27.6346,-97.2370,0.0,4.4,148.0,6.6,'11111222,11111222,11111222' 
TCOON,ioos:station:TCOON:005:1,2014-09-01T06:06:00Z,27.6346,-97.2370,0.0,5.4,146.0,6.9,'11111222,11111222,11111222' 
TCOON,ioos:station:TCOON:005:1,2014-09-01T06:12:00Z,27.6346,-97.2370,0.0,5.4,146.0,6.9,'1111122,1111122,1111122' 
TCOON,ioos:station:TCOON:005:1,2014-09-01T06:18:00Z,27.6346,-97.2370,0.0,4.5,147.0,6.0,'11111222,11111222,11111222' 
TCOON,ioos:station:TCOON:005:1,2014-09-01T06:24:00Z,27.6346,-97.2370,0.0,4.3,144.0,5.8,'11111222,11111222,11111222' 
TCOON,ioos:station:TCOON:005:1,2014-09-01T06:30:00Z,27.6346,-97.2370,0.0,4.6,141.0,5.9,'11111222,11111222,11111222' 
TCOON,ioos:station:TCOON:005:1,2014-09-01T06:36:00Z,27.6346,-97.2370,0.0,5.1,142.0,6.8,'11111222,11111222,11111222' 
TCOON,ioos:station:TCOON:005:1,2014-09-01T06:42:00Z,27.6346,-97.2370,0.0,5.7,143.0,7.4,'11111222,11111222,11111222' 
TCOON,ioos:station:TCOON:005:1,2014-09-01T06:48:00Z,27.6346,-97.2370,0.0,5.2,143.0,7.3,'11111222,11111222,11111222' 
TCOON,ioos:station:TCOON:005:1,2014-09-01T06:54:00Z,27.6346,-97.2370,0.0,5.1,144.0,7.4,'11111222,11111222,11111222' 
TCOON,ioos:station:TCOON:005:1,2014-09-01T07:00:00Z,27.6346,-97.2370,0.0,4.5,145.0,6.8,'11111222,11111222,11111222' 
TCOON,ioos:station:TCOON:005:1,2014-09-01T07:06:00Z,27.6346,-97.2370,0.0,4.9,144.0,7.4,'11111222,11111222,11111222' 
TCOON,ioos:station:TCOON:005:1,2014-09-01T07:12:00Z,27.6346,-97.2370,0.0,4.9,144.0,7.4,'1111122,1111122,1111122' 
TCOON,ioos:station:TCOON:005:1,2014-09-01T07:18:00Z,27.6346,-97.2370,0.0,5.4,146.0,6.9,'11111222,11111222,11111222' 
TCOON,ioos:station:TCOON:005:1,2014-09-01T07:24:00Z,27.6346,-97.2370,0.0,5.0,143.0,7.3,'11111222,11111222,11111222' 
TCOON,ioos:station:TCOON:005:1,2014-09-01T07:30:00Z,27.6346,-97.2370,0.0,4.3,146.0,5.9,'11111222,11111222,11111222' 
TCOON,ioos:station:TCOON:005:1,2014-09-01T07:36:00Z,27.6346,-97.2370,0.0,3.9,146.0,7.0,'11111222,11111222,11111222' 
TCOON,ioos:station:TCOON:005:1,2014-09-01T07:42:00Z,27.6346,-97.2370,0.0,4.5,148.0,6.0,'11111222,11111222,11111222' 
TCOON,ioos:station:TCOON:005:1,2014-09-01T07:48:00Z,27.6346,-97.2370,0.0,5.1,144.0,6.5,'11111222,11111222,11111222' 
TCOON,ioos:station:TCOON:005:1,2014-09-01T07:54:00Z,27.6346,-97.2370,0.0,4.8,146.0,7.6,'11111222,11111222,11111222' 
TCOON,ioos:station:TCOON:005:1,2014-09-01T08:00:00Z,27.6346,-97.2370,0.0,4.6,150.0,6.7,'11111222,11111222,11111222' 
TCOON,ioos:station:TCOON:005:1,2014-09-01T08:06:00Z,27.6346,-97.2370,0.0,4.7,152.0,6.0,'11111222,11111222,11111222' 
TCOON,ioos:station:TCOON:005:1,2014-09-01T08:12:00Z,27.6346,-97.2370,0.0,4.1,148.0,5.2,'11111222,11111222,11111222' 
TCOON,ioos:station:TCOON:005:1,2014-09-01T08:18:00Z,27.6346,-97.2370,0.0,4.1,148.0,5.2,'1111122,1111122,1111122' 
TCOON,ioos:station:TCOON:005:1,2014-09-01T08:24:00Z,27.6346,-97.2370,0.0,4.4,153.0,6.1,'11111222,11111222,11111222' 
TCOON,ioos:station:TCOON:005:1,2014-09-01T08:30:00Z,27.6346,-97.2370,0.0,4.7,152.0,7.3,'11111222,11111222,11111222' 
TCOON,ioos:station:TCOON:005:1,2014-09-01T08:36:00Z,27.6346,-97.2370,0.0,5.2,155.0,6.9,'11111222,11111222,11111222' 
TCOON,ioos:station:TCOON:005:1,2014-09-01T08:42:00Z,27.6346,-97.2370,0.0,3.8,153.0,6.5,'11111222,11111222,11111222' 
TCOON,ioos:station:TCOON:005:1,2014-09-01T08:48:00Z,27.6346,-97.2370,0.0,4.7,153.0,6.0,'11111222,11111222,11111222' 
TCOON,ioos:station:TCOON:005:1,2014-09-01T08:54:00Z,27.6346,-97.2370,0.0,3.6,155.0,5.9,'11111222,11111222,11111222' 
TCOON,ioos:station:TCOON:005:1,2014-09-01T09:00:00Z,27.6346,-97.2370,0.0,3.8,160.0,5.4,'11111222,11111222,11111222' 
TCOON,ioos:station:TCOON:005:1,2014-09-01T09:06:00Z,27.6346,-97.2370,0.0,3.9,154.0,5.7,'11111222,11111222,11111222' 
TCOON,ioos:station:TCOON:005:1,2014-09-01T09:12:00Z,27.6346,-97.2370,0.0,3.9,154.0,5.7,'1111122,1111122,1111122' 
TCOON,ioos:station:TCOON:005:1,2014-09-01T09:18:00Z,27.6346,-97.2370,0.0,4.1,152.0,5.4,'11111222,11111222,11111222' 
TCOON,ioos:station:TCOON:005:1,2014-09-01T09:24:00Z,27.6346,-97.2370,0.0,3.8,155.0,5.2,'11111222,11111222,11111222' 
TCOON,ioos:station:TCOON:005:1,2014-09-01T09:30:00Z,27.6346,-97.2370,0.0,3.2,155.0,4.9,'11111222,11111222,11111222' 
TCOON,ioos:station:TCOON:005:1,2014-09-01T09:36:00Z,27.6346,-97.2370,0.0,4.6,157.0,5.6,'11111222,11111222,11111222' 
TCOON,ioos:station:TCOON:005:1,2014-09-01T09:42:00Z,27.6346,-97.2370,0.0,4.0,155.0,5.5,'11111222,11111222,11111222' 
TCOON,ioos:station:TCOON:005:1,2014-09-01T09:48:00Z,27.6346,-97.2370,0.0,2.9,157.0,4.7,'11111222,11111222,11111222' 
TCOON,ioos:station:TCOON:005:1,2014-09-01T09:54:00Z,27.6346,-97.2370,0.0,3.2,159.0,4.2,'11111222,11111222,11111222' 
TCOON,ioos:station:TCOON:005:1,2014-09-01T10:00:00Z,27.6346,-97.2370,0.0,3.3,156.0,5.2,'11111222,11111222,11111222' 
TCOON,ioos:station:TCOON:005:1,2014-09-01T10:06:00Z,27.6346,-97.2370,0.0,3.3,154.0,4.2,'11111222,11111222,11111222' 
TCOON,ioos:station:TCOON:005:1,2014-09-01T10:12:00Z,27.6346,-97.2370,0.0,3.3,154.0,4.2,'1111122,1111122,1111122' 
TCOON,ioos:station:TCOON:005:1,2014-09-01T10:18:00Z,27.6346,-97.2370,0.0,3.3,155.0,4.3,'11111222,11111222,11111222' 
TCOON,ioos:station:TCOON:005:1,2014-09-01T10:24:00Z,27.6346,-97.2370,0.0,2.2,157.0,3.4,'11111222,11111222,11111222' 
TCOON,ioos:station:TCOON:005:1,2014-09-01T10:30:00Z,27.6346,-97.2370,0.0,2.0,154.0,3.1,'11111222,11111222,11111222' 
TCOON,ioos:station:TCOON:005:1,2014-09-01T10:36:00Z,27.6346,-97.2370,0.0,2.6,157.0,3.3,'11111222,11111222,11111222' 
TCOON,ioos:station:TCOON:005:1,2014-09-01T10:42:00Z,27.6346,-97.2370,0.0,2.4,157.0,3.0,'11111222,11111222,11111222' 
TCOON,ioos:station:TCOON:005:1,2014-09-01T10:48:00Z,27.6346,-97.2370,0.0,2.3,163.0,3.1,'11111222,11111222,11111222' 
TCOON,ioos:station:TCOON:005:1,2014-09-01T10:54:00Z,27.6346,-97.2370,0.0,2.4,161.0,3.8,'11111222,11111222,11111222' 
TCOON,ioos:station:TCOON:005:1,2014-09-01T11:00:00Z,27.6346,-97.2370,0.0,3.0,156.0,3.7,'11111222,11111222,11111222' 
TCOON,ioos:station:TCOON:005:1,2014-09-01T11:06:00Z,27.6346,-97.2370,0.0,2.8,155.0,3.6,'11111222,11111222,11111222' 
TCOON,ioos:station:TCOON:005:1,2014-09-01T11:12:00Z,27.6346,-97.2370,0.0,2.8,155.0,3.6,'1111122,1111122,1111122' 
TCOON,ioos:station:TCOON:005:1,2014-09-01T11:18:00Z,27.6346,-97.2370,0.0,2.4,153.0,3.4,'11111222,11111222,11111222' 
TCOON,ioos:station:TCOON:005:1,2014-09-01T11:24:00Z,27.6346,-97.2370,0.0,2.8,153.0,4.0,'11111222,11111222,11111222' 
TCOON,ioos:station:TCOON:005:1,2014-09-01T11:30:00Z,27.6346,-97.2370,0.0,2.8,149.0,3.6,'11111222,11111222,11111222' 
TCOON,ioos:station:TCOON:005:1,2014-09-01T11:36:00Z,27.6346,-97.2370,0.0,2.7,152.0,3.4,'11111222,11111222,11111222' 
TCOON,ioos:station:TCOON:005:1,2014-09-01T11:42:00Z,27.6346,-97.2370,0.0,2.6,152.0,3.4,'11111222,11111222,11111222' 
TCOON,ioos:station:TCOON:005:1,2014-09-01T11:48:00Z,27.6346,-97.2370,0.0,2.4,151.0,3.3,'11111222,11111222,11111222' 
TCOON,ioos:station:TCOON:005:1,2014-09-01T11:54:00Z,27.6346,-97.2370,0.0,2.4,160.0,3.1,'11111222,11111222,11111222' 
TCOON,ioos:station:TCOON:005:1,2014-09-01T12:00:00Z,27.6346,-97.2370,0.0,2.6,162.0,3.4,'11111222,11111222,11111222' 
TCOON,ioos:station:TCOON:005:1,2014-09-01T12:06:00Z,27.6346,-97.2370,0.0,2.5,162.0,3.7,'11111222,11111222,11111222' 
TCOON,ioos:station:TCOON:005:1,2014-09-01T12:12:00Z,27.6346,-97.2370,0.0,2.5,162.0,3.7,'1111122,1111122,1111122' 
TCOON,ioos:station:TCOON:005:1,2014-09-01T12:18:00Z,27.6346,-97.2370,0.0,2.2,153.0,3.8,'11111222,11111222,11111222' 
TCOON,ioos:station:TCOON:005:1,2014-09-01T12:24:00Z,27.6346,-97.2370,0.0,2.4,155.0,3.3,'11111222,11111222,11111222' 
TCOON,ioos:station:TCOON:005:1,2014-09-01T12:30:00Z,27.6346,-97.2370,0.0,2.0,153.0,2.9,'11111222,11111222,11111222' 
TCOON,ioos:station:TCOON:005:1,2014-09-01T12:36:00Z,27.6346,-97.2370,0.0,2.6,151.0,3.6,'11111222,11111222,11111222' 
TCOON,ioos:station:TCOON:005:1,2014-09-01T12:42:00Z,27.6346,-97.2370,0.0,2.7,154.0,3.5,'11111222,11111222,11111222' 
TCOON,ioos:station:TCOON:005:1,2014-09-01T12:48:00Z,27.6346,-97.2370,0.0,3.0,158.0,4.0,'11111222,11111222,11111222' 
TCOON,ioos:station:TCOON:005:1,2014-09-01T12:54:00Z,27.6346,-97.2370,0.0,2.9,157.0,3.9,'11111222,11111222,11111222' 
TCOON,ioos:station:TCOON:005:1,2014-09-01T13:00:00Z,27.6346,-97.2370,0.0,2.8,156.0,4.4,'11111222,11111222,11111222' 
TCOON,ioos:station:TCOON:005:1,2014-09-01T13:06:00Z,27.6346,-97.2370,0.0,3.3,156.0,4.1,'11111222,11111222,11111222' 
TCOON,ioos:station:TCOON:005:1,2014-09-01T13:12:00Z,27.6346,-97.2370,0.0,3.3,156.0,4.1,'1111122,1111122,1111122' 
TCOON,ioos:station:TCOON:005:1,2014-09-01T13:18:00Z,27.6346,-97.2370,0.0,3.7,149.0,5.1,'11111222,11111222,11111222' 
TCOON,ioos:station:TCOON:005:1,2014-09-01T13:24:00Z,27.6346,-97.2370,0.0,2.9,152.0,5.4,'11111222,11111222,11111222' 
TCOON,ioos:station:TCOON:005:1,2014-09-01T13:30:00Z,27.6346,-97.2370,0.0,2.3,159.0,3.8,'11111222,11111222,11111222' 
TCOON,ioos:station:TCOON:005:1,2014-09-01T13:36:00Z,27.6346,-97.2370,0.0,3.8,168.0,5.6,'11111222,11111222,11111222' 
TCOON,ioos:station:TCOON:005:1,2014-09-01T13:42:00Z,27.6346,-97.2370,0.0,3.5,156.0,5.1,'11111222,11111222,11111222' 
TCOON,ioos:station:TCOON:005:1,2014-09-01T13:48:00Z,27.6346,-97.2370,0.0,2.8,152.0,4.7,'11111222,11111222,11111222' 
TCOON,ioos:station:TCOON:005:1,2014-09-01T13:54:00Z,27.6346,-97.2370,0.0,4.0,167.0,5.1,'11111222,11111222,11111222' 
TCOON,ioos:station:TCOON:005:1,2014-09-01T14:00:00Z,27.6346,-97.2370,0.0,3.8,159.0,5.5,'11111222,11111222,11111222' 
TCOON,ioos:station:TCOON:005:1,2014-09-01T14:06:00Z,27.6346,-97.2370,0.0,3.3,161.0,5.9,'11111222,11111222,11111222' 
TCOON,ioos:station:TCOON:005:1,2014-09-01T14:12:00Z,27.6346,-97.2370,0.0,3.6,151.0,4.2,'11111222,11111222,11111222' 
TCOON,ioos:station:TCOON:005:1,2014-09-01T14:18:00Z,27.6346,-97.2370,0.0,3.6,151.0,4.2,'1111122,1111122,1111122' 
TCOON,ioos:station:TCOON:005:1,2014-09-01T14:24:00Z,27.6346,-97.2370,0.0,2.5,149.0,3.9,'11111222,11111222,11111222' 
TCOON,ioos:station:TCOON:005:1,2014-09-01T14:30:00Z,27.6346,-97.2370,0.0,2.6,150.0,4.3,'11111222,11111222,11111222' 
TCOON,ioos:station:TCOON:005:1,2014-09-01T14:36:00Z,27.6346,-97.2370,0.0,3.2,152.0,5.0,'11111222,11111222,11111222' 
TCOON,ioos:station:TCOON:005:1,2014-09-01T14:42:00Z,27.6346,-97.2370,0.0,4.2,150.0,5.8,'11111222,11111222,11111222' 
TCOON,ioos:station:TCOON:005:1,2014-09-01T14:48:00Z,27.6346,-97.2370,0.0,4.7,138.0,6.0,'11111222,11111222,11111222' 
TCOON,ioos:station:TCOON:005:1,2014-09-01T14:54:00Z,27.6346,-97.2370,0.0,3.3,137.0,5.0,'11111222,11111222,11111222' 
TCOON,ioos:station:TCOON:005:1,2014-09-01T15:00:00Z,27.6346,-97.2370,0.0,3.3,153.0,4.4,'11111222,11111222,11111222' 
TCOON,ioos:station:TCOON:005:1,2014-09-01T15:06:00Z,27.6346,-97.2370,0.0,5.2,136.0,6.2,'11111222,11111222,11111222' 
TCOON,ioos:station:TCOON:005:1,2014-09-01T15:12:00Z,27.6346,-97.2370,0.0,5.2,136.0,6.2,'1111122,1111122,1111122' 
TCOON,ioos:station:TCOON:005:1,2014-09-01T15:18:00Z,27.6346,-97.2370,0.0,5.3,128.0,6.9,'11111222,11111222,11111222' 
TCOON,ioos:station:TCOON:005:1,2014-09-01T15:24:00Z,27.6346,-97.2370,0.0,6.3,129.0,7.5,'11111222,11111222,11111222' 
TCOON,ioos:station:TCOON:005:1,2014-09-01T15:30:00Z,27.6346,-97.2370,0.0,6.3,129.0,8.3,'11111222,11111222,11111222' 
TCOON,ioos:station:TCOON:005:1,2014-09-01T15:36:00Z,27.6346,-97.2370,0.0,4.7,138.0,7.1,'11111222,11111222,11111222' 
TCOON,ioos:station:TCOON:005:1,2014-09-01T15:42:00Z,27.6346,-97.2370,0.0,3.9,134.0,5.1,'11111222,11111222,11111222' 
TCOON,ioos:station:TCOON:005:1,2014-09-01T15:48:00Z,27.6346,-97.2370,0.0,3.3,136.0,4.6,'11111222,11111222,11111222' 
TCOON,ioos:station:TCOON:005:1,2014-09-01T15:54:00Z,27.6346,-97.2370,0.0,3.0,141.0,4.2,'11111222,11111222,11111222' 
TCOON,ioos:station:TCOON:005:1,2014-09-01T16:00:00Z,27.6346,-97.2370,0.0,3.6,147.0,5.0,'11111222,11111222,11111222' 
TCOON,ioos:station:TCOON:005:1,2014-09-01T16:06:00Z,27.6346,-97.2370,0.0,4.6,142.0,5.6,'11111222,11111222,11111222' 
TCOON,ioos:station:TCOON:005:1,2014-09-01T16:12:00Z,27.6346,-97.2370,0.0,4.6,142.0,5.6,'1111122,1111122,1111122' 
TCOON,ioos:station:TCOON:005:1,2014-09-01T16:18:00Z,27.6346,-97.2370,0.0,3.9,132.0,6.2,'11111222,11111222,11111222' 
TCOON,ioos:station:TCOON:005:1,2014-09-01T16:24:00Z,27.6346,-97.2370,0.0,4.8,144.0,6.2,'11111222,11111222,11111222' 
TCOON,ioos:station:TCOON:005:1,2014-09-01T16:30:00Z,27.6346,-97.2370,0.0,4.8,129.0,6.7,'11111222,11111222,11111222' 
TCOON,ioos:station:TCOON:005:1,2014-09-01T16:36:00Z,27.6346,-97.2370,0.0,5.5,133.0,7.3,'11111222,11111222,11111222' 
TCOON,ioos:station:TCOON:005:1,2014-09-01T16:42:00Z,27.6346,-97.2370,0.0,4.1,143.0,6.3,'11111222,11111222,11111222' 
TCOON,ioos:station:TCOON:005:1,2014-09-01T16:48:00Z,27.6346,-97.2370,0.0,5.8,134.0,7.3,'11111222,11111222,11111222' 
TCOON,ioos:station:TCOON:005:1,2014-09-01T16:54:00Z,27.6346,-97.2370,0.0,5.5,141.0,7.0,'11111222,11111222,11111222' 
TCOON,ioos:station:TCOON:005:1,2014-09-01T17:00:00Z,27.6346,-97.2370,0.0,4.7,122.0,7.0,'11111222,11111222,11111222' 
TCOON,ioos:station:TCOON:005:1,2014-09-01T17:06:00Z,27.6346,-97.2370,0.0,5.3,127.0,7.7,'11111222,11111222,11111222' 
TCOON,ioos:station:TCOON:005:1,2014-09-01T17:12:00Z,27.6346,-97.2370,0.0,5.3,127.0,7.7,'1111122,1111122,1111122' 
TCOON,ioos:station:TCOON:005:1,2014-09-01T17:18:00Z,27.6346,-97.2370,0.0,4.2,167.0,7.0,'11111222,11111222,11111222' 
TCOON,ioos:station:TCOON:005:1,2014-09-01T17:24:00Z,27.6346,-97.2370,0.0,3.8,180.0,5.7,'11111222,11111222,11111222' 
TCOON,ioos:station:TCOON:005:1,2014-09-01T17:30:00Z,27.6346,-97.2370,0.0,4.0,135.0,5.8,'11111222,11111222,11111222' 
TCOON,ioos:station:TCOON:005:1,2014-09-01T17:36:00Z,27.6346,-97.2370,0.0,3.3,150.0,4.7,'11111222,11111222,11111222' 
TCOON,ioos:station:TCOON:005:1,2014-09-01T17:42:00Z,27.6346,-97.2370,0.0,4.5,128.0,6.6,'11111222,11111222,11111222' 
TCOON,ioos:station:TCOON:005:1,2014-09-01T17:48:00Z,27.6346,-97.2370,0.0,5.2,112.0,6.9,'11111222,11111222,11111222' 
TCOON,ioos:station:TCOON:005:1,2014-09-01T17:54:00Z,27.6346,-97.2370,0.0,6.6,126.0,8.9,'11111222,11111222,11111222' 
TCOON,ioos:station:TCOON:005:1,2014-09-01T18:00:00Z,27.6346,-97.2370,0.0,6.8,139.0,8.6,'11111222,11111222,11111222' 
TCOON,ioos:station:TCOON:005:1,2014-09-01T18:06:00Z,27.6346,-97.2370,0.0,6.5,122.0,8.4,'11111222,11111222,11111222' 
TCOON,ioos:station:TCOON:005:1,2014-09-01T18:12:00Z,27.6346,-97.2370,0.0,6.5,122.0,8.4,'1111122,1111122,1111122' 
TCOON,ioos:station:TCOON:005:1,2014-09-01T18:18:00Z,27.6346,-97.2370,0.0,6.0,123.0,8.7,'11111222,11111222,11111222' 
TCOON,ioos:station:TCOON:005:1,2014-09-01T18:24:00Z,27.6346,-97.2370,0.0,6.6,127.0,8.3,'11111222,11111222,11111222' 
TCOON,ioos:station:TCOON:005:1,2014-09-01T18:30:00Z,27.6346,-97.2370,0.0,7.6,128.0,9.1,'11111222,11111222,11111222' 
TCOON,ioos:station:TCOON:005:1,2014-09-01T18:36:00Z,27.6346,-97.2370,0.0,6.7,134.0,9.2,'11111222,11111222,11111222' 
TCOON,ioos:station:TCOON:005:1,2014-09-01T18:42:00Z,27.6346,-97.2370,0.0,6.0,128.0,9.2,'11111222,11111222,11111222' 
TCOON,ioos:station:TCOON:005:1,2014-09-01T18:48:00Z,27.6346,-97.2370,0.0,5.5,137.0,9.1,'11111222,11111222,11111222' 
TCOON,ioos:station:TCOON:005:1,2014-09-01T18:54:00Z,27.6346,-97.2370,0.0,6.8,139.0,8.8,'11111222,11111222,11111222' 
TCOON,ioos:station:TCOON:005:1,2014-09-01T19:00:00Z,27.6346,-97.2370,0.0,6.6,143.0,8.2,'11111222,11111222,11111222' 
TCOON,ioos:station:TCOON:005:1,2014-09-01T19:06:00Z,27.6346,-97.2370,0.0,6.6,125.0,9.0,'11111222,11111222,11111222' 
TCOON,ioos:station:TCOON:005:1,2014-09-01T19:12:00Z,27.6346,-97.2370,0.0,6.1,126.0,8.2,'11111222,11111222,11111222' 
TCOON,ioos:station:TCOON:005:1,2014-09-01T19:18:00Z,27.6346,-97.2370,0.0,6.1,126.0,8.2,'1111122,1111122,1111122' 
TCOON,ioos:station:TCOON:005:1,2014-09-01T19:24:00Z,27.6346,-97.2370,0.0,6.8,129.0,9.2,'11111222,11111222,11111222' 
TCOON,ioos:station:TCOON:005:1,2014-09-01T19:30:00Z,27.6346,-97.2370,0.0,7.6,124.0,9.0,'11111222,11111222,11111222' 
TCOON,ioos:station:TCOON:005:1,2014-09-01T19:36:00Z,27.6346,-97.2370,0.0,7.1,135.0,8.8,'11111222,11111222,11111222' 
TCOON,ioos:station:TCOON:005:1,2014-09-01T19:42:00Z,27.6346,-97.2370,0.0,6.4,144.0,8.3,'11111222,11111222,11111222' 
TCOON,ioos:station:TCOON:005:1,2014-09-01T19:48:00Z,27.6346,-97.2370,0.0,8.1,114.0,9.8,'11111222,11111222,11111222' 
TCOON,ioos:station:TCOON:005:1,2014-09-01T19:54:00Z,27.6346,-97.2370,0.0,7.3,122.0,9.6,'11111222,11111222,11111222' 
TCOON,ioos:station:TCOON:005:1,2014-09-01T20:00:00Z,27.6346,-97.2370,0.0,6.8,136.0,8.8,'11111222,11111222,11111222' 
TCOON,ioos:station:TCOON:005:1,2014-09-01T20:06:00Z,27.6346,-97.2370,0.0,6.9,133.0,9.2,'11111222,11111222,11111222' 
TCOON,ioos:station:TCOON:005:1,2014-09-01T20:12:00Z,27.6346,-97.2370,0.0,6.9,133.0,9.2,'1111122,1111122,1111122' 
TCOON,ioos:station:TCOON:005:1,2014-09-01T20:18:00Z,27.6346,-97.2370,0.0,7.5,122.0,9.1,'11111222,11111222,11111222' 